sat.trackr.live / text

‹ back to catalog

STARLINK-2533

NORAD 48294 · 2021-036U

PAYLOAD ACTIVE UNKNOWN

§ Identity

Operator
Country
US
Launch date
2021-04-29
Launch site
AFETR
Launch vehicle
Mass (kg)
RCS (m²)

Purposes: comms

External: N2YO · Heavens-Above · Gunter

§ Orbital elements

Epoch: 2026-09-12T02:30:38.824128Z

Period
94.01 min
Inclination
53.1588°
Eccentricity
0.0001288
Mean motion
15.31698741 rev/d
Perigee alt
469.9 km
Apogee alt
471.6 km
Semi-major
6,848.9 km
B*
1.3297e-4
RAAN
287.8320°
Arg perigee
86.6971°
Mean anomaly
273.4178°
Rev number
29,697

§ Raw data

STARLINK-25331 48294U 21036U   26255.10461602  .00003763  00000+0  13297-3 0  99922 48294  53.1588 287.8320 0001288  86.6971 273.4178 15.31698741296975

JSON: /api/v1/satellites/48294 · /tle

For live sub-satellite position, see the globe view (requires WebGL).

§ Visibility from observer

Set your observer location to see the next 7 days of passes ≥ 10°. The values pass through the URL so the page stays shareable.

No JS? Fill the form by hand. The geolocation button needs JavaScript.